Home   Weather   Oss   Past weeks

Flag for Netherlands Past Weather in Oss, Netherlands — Yesterday and Last 2 Weeks

Now
28 °F

Ice fog.


Feels Like: 28 °F
Forecast: 22 / 31 °F
Wind: 2 mph from North

Location: Volkel

Current Time: Jan 17, 2017 at 12:19:11 pm

Latest Report: Jan 17, 2017 at 11:55 am


Visibility: 3 mi

Pressure: 30.66 "Hg

Humidity: 80%

Dew Point: 23 °F

Location of OssLocation

Past Weather in Oss — Graph

°F

Oss Temperature Yesterday

Maximum temperature yesterday: 32 °F (at 2:55 am)
Minimum temperature yesterday: 25 °F (at 8:41 pm)
Average temperature yesterday: 28 °F

High & Low Weather Summary for the Past Weeks

 TemperatureHumidityPressure
High50 °F (Jan 11, 2:25 pm)100% (Jan 3, 12:55 am)30.74 "Hg (Jan 3, 12:55 am)
Low18 °F (Jan 6, 8:55 am)60% (Jan 5, 1:25 pm)28.97 "Hg (Jan 13, 12:25 am)
Average35 °F90%30.10 "Hg
* Reported Jan 2 10:25 am — Jan 17 10:55 am, Oss, Weather by CustomWeather, © 2017

Note: Actual official high and low records may vary slightly from our data, if they occured in-between our weather recording intervals... More about our weather records

Advertising

Oss Weather History for the Previous 24 Hours

Scroll right to see more
 ConditionsComfort  
Time TempWeatherWind HumidityBarometerVisibility
10:55 am
Tue, Jan 17
27 °FIce fog.5 mph86%30.66 "Hg4 mi
10:25 am27 °FIce fog.3 mph86%30.66 "Hg4 mi
9:55 am27 °FIce fog.2 mph86%30.63 "Hg4 mi
9:25 am25 °FIce fog.3 mph86%30.63 "Hg4 mi
8:55 am25 °FIce fog.5 mph86%30.63 "Hg4 mi
8:34 am27 °FIce fog.5 mph86%30.63 "Hg4 mi
8:09 am27 °FIce fog.3 mph86%30.60 "Hg6 mi
7:55 am27 °FIce fog.5 mph86%30.60 "Hg5 mi
7:25 am27 °FIce fog.5 mph86%30.60 "Hg4 mi
6:55 am27 °FIce fog.5 mph86%30.60 "Hg4 mi
6:25 am25 °FIce fog.7 mph93%30.60 "Hg3 mi
6:09 am25 °FIce fog.6 mph93%30.57 "Hg3 mi
5:55 am25 °FIce fog.6 mph93%30.57 "Hg3 mi
5:25 am25 °FIce fog.5 mph93%30.57 "Hg3 mi
5:19 am25 °FIce fog.6 mph93%30.57 "Hg3 mi
4:55 am25 °FIce fog.6 mph93%30.57 "Hg3 mi
4:39 am25 °FIce fog.8 mph93%30.57 "Hg2 mi
3:55 am23 °FIce fog.8 mph100%30.57 "Hg2 mi
3:25 am25 °FIce fog.7 mph93%30.57 "Hg2 mi
2:55 am25 °FIce fog.5 mph93%30.54 "Hg2 mi
2:25 am25 °FIce fog.5 mph93%30.54 "Hg1 mi
1:55 am23 °FIce fog.6 mph100%30.54 "Hg2 mi
1:25 am25 °FIce fog.3 mph93%30.54 "Hg1 mi
12:55 am25 °FIce fog.3 mph93%30.54 "Hg2 mi
12:25 am25 °FIce fog.6 mph93%30.54 "Hg1 mi
11:55 pm
Mon, Jan 16
25 °FIce fog.7 mph93%30.51 "Hg1 mi
11:27 pm25 °FIce fog.7 mph100%30.51 "Hg1 mi
10:55 pm25 °FIce fog.8 mph100%30.51 "Hg1 mi
10:39 pm25 °FIce fog.7 mph100%30.51 "Hg1 mi
10:17 pm27 °FIce fog.5 mph93%30.48 "Hg1 mi
10:05 pm25 °FIce fog.6 mph100%30.48 "Hg1 mi
9:44 pm27 °FIce fog.6 mph93%30.48 "Hg1 mi
9:17 pm27 °FIce fog.6 mph93%30.48 "Hg2 mi
8:41 pm25 °FIce fog.5 mph100%30.45 "Hg3 mi
7:55 pm27 °FIce fog.3 mph93%30.45 "Hg4 mi
7:29 pm27 °FIce fog.5 mph93%30.42 "Hg4 mi
6:55 pm28 °FIce fog.3 mph93%30.42 "Hg5 mi
6:25 pm28 °FIce fog.2 mph93%30.42 "Hg5 mi
6:07 pm28 °FIce fog.2 mph93%30.42 "Hg6 mi
5:25 pm28 °FOvercast.1 mph93%30.39 "HgN/A
4:55 pm28 °FMore clouds than sun.3 mph93%30.39 "HgN/A
4:25 pm28 °FIce fog.6 mph93%30.39 "Hg4 mi
3:55 pm28 °FIce fog.3 mph93%30.39 "Hg3 mi
3:39 pm28 °FIce fog.3 mph100%30.39 "Hg4 mi
3:25 pm28 °FIce fog.6 mph93%30.36 "Hg3 mi
2:55 pm28 °FIce fog.6 mph93%30.36 "Hg3 mi
2:39 pm28 °FIce fog.3 mph100%30.36 "Hg3 mi
2:25 pm28 °FIce fog.7 mph93%30.36 "Hg2 mi
2:12 pm28 °FIce fog.7 mph100%30.36 "Hg2 mi
1:55 pm28 °FIce fog.3 mph100%30.36 "Hg1 mi
1:29 pm28 °FIce fog.5 mph100%30.36 "Hg1 mi
12:55 pm28 °FIce fog.7 mph100%30.36 "Hg0 mi
12:25 pm28 °FIce fog.6 mph100%30.36 "Hg0 mi
Weather by CustomWeather, © 2017

See weather overviewHow to use our weather pages